| time (UTC) | temp C | wind direction | speed KPH | gust KPH | rain 1hr cm | rain 24hr cm | rain mn cm | humidity % | barometer mb |
| 20260502210552 | 8 | 306 | 8.0 | 16.1 | 0.00 | 0.00 | 0.00 | 39 | 1016.7 |
| 20260502210031 | 8 | 309 | 6.4 | 14.5 | 0.00 | 0.00 | 0.00 | 39 | 1017.0 |
| 20260502205531 | 8 | 289 | 8.0 | 14.5 | 0.00 | 0.00 | 0.00 | 39 | 1017.0 |
| 20260502205031 | 9 | 291 | 6.4 | 11.3 | 0.00 | 0.00 | 0.00 | 40 | 1017.0 |
| 20260502204531 | 9 | 255 | 6.4 | 14.5 | 0.00 | 0.00 | 0.00 | 39 | 1017.0 |
| 20260502204031 | 9 | 240 | 6.4 | 12.9 | 0.00 | 0.00 | 0.00 | 39 | 1017.0 |
| 20260502203531 | 8 | 271 | 8.0 | 11.3 | 0.00 | 0.00 | 0.00 | 39 | 1017.0 |
| 20260502203031 | 8 | 253 | 6.4 | 11.3 | 0.00 | 0.00 | 0.00 | 40 | 1017.0 |
| 20260502202531 | 8 | 248 | 8.0 | 14.5 | 0.00 | 0.00 | 0.00 | 40 | 1017.0 |
| 20260502202031 | 8 | 241 | 8.0 | 17.7 | 0.00 | 0.00 | 0.00 | 38 | 1017.4 |
| 20260502201551 | 8 | 245 | 4.8 | 11.3 | 0.00 | 0.00 | 0.00 | 40 | 1017.4 |
| 20260502201031 | 8 | 289 | 6.4 | 9.7 | 0.00 | 0.00 | 0.00 | 38 | 1017.4 |
| 20260502200531 | 8 | 290 | 9.7 | 17.7 | 0.00 | 0.00 | 0.00 | 39 | 1017.4 |
| 20260502200052 | 8 | 279 | 8.0 | 12.9 | 0.00 | 0.00 | 0.00 | 38 | 1017.4 |
| 20260502195551 | 8 | 281 | 8.0 | 12.9 | 0.00 | 0.00 | 0.00 | 39 | 1017.4 |
| 20260502195051 | 8 | 292 | 9.7 | 16.1 | 0.00 | 0.00 | 0.00 | 38 | 1017.7 |
| 20260502194531 | 8 | 330 | 6.4 | 14.5 | 0.00 | 0.00 | 0.00 | 38 | 1017.7 |
| 20260502194031 | 8 | 301 | 6.4 | 14.5 | 0.00 | 0.00 | 0.00 | 37 | 1017.7 |
| 20260502193532 | 9 | 297 | 8.0 | 16.1 | 0.00 | 0.00 | 0.00 | 38 | 1017.8 |
| 20260502193111 | 9 | 269 | 6.4 | 14.5 | 0.00 | 0.00 | 0.00 | 38 | 1017.8 |
| 20260502192531 | 9 | 281 | 6.4 | 11.3 | 0.00 | 0.00 | 0.00 | 39 | 1017.8 |
| 20260502192051 | 9 | 274 | 4.8 | 9.7 | 0.00 | 0.00 | 0.00 | 37 | 1017.8 |
| 20260502191531 | 9 | 231 | 4.8 | 9.7 | 0.00 | 0.00 | 0.00 | 38 | 1017.8 |
| 20260502191031 | 8 | 234 | 6.4 | 12.9 | 0.00 | 0.00 | 0.00 | 38 | 1018.1 |
| 20260502190531 | 8 | 266 | 8.0 | 17.7 | 0.00 | 0.00 | 0.00 | 38 | 1018.0 |
| 20260502190052 | 8 | 276 | 8.0 | 14.5 | 0.00 | 0.00 | 0.00 | 39 | 1018.1 |
| 20260502185531 | 8 | 247 | 6.4 | 11.3 | 0.00 | 0.00 | 0.00 | 40 | 1018.1 |
| 20260502185031 | 8 | 235 | 8.0 | 12.9 | 0.00 | 0.00 | 0.00 | 39 | 1018.1 |
| 20260502184532 | 8 | 215 | 6.4 | 11.3 | 0.00 | 0.00 | 0.00 | 39 | 1018.1 |
| 20260502184031 | 8 | 220 | 6.4 | 11.3 | 0.00 | 0.00 | 0.00 | 39 | 1018.1 |
| 20260502183531 | 8 | 236 | 8.0 | 19.3 | 0.00 | 0.00 | 0.00 | 40 | 1018.0 |
| 20260502183031 | 8 | 251 | 6.4 | 12.9 | 0.00 | 0.00 | 0.00 | 39 | 1018.1 |
| 20260502182532 | 8 | 224 | 3.2 | 12.9 | 0.00 | 0.00 | 0.00 | 39 | 1018.1 |
| 20260502182112 | 8 | 260 | 6.4 | 11.3 | 0.00 | 0.00 | 0.00 | 39 | 1018.1 |
| 20260502181531 | 8 | 265 | 6.4 | 11.3 | 0.00 | 0.00 | 0.00 | 41 | 1018.4 |
| 20260502181031 | 8 | 257 | 6.4 | 20.9 | 0.00 | 0.00 | 0.00 | 41 | 1018.4 |
| 20260502180531 | 8 | 250 | 4.8 | 8.0 | 0.00 | 0.00 | 0.00 | 40 | 1018.4 |
| 20260502164051 | 7 | 248 | 4.8 | 6.4 | 0.00 | 0.00 | 0.00 | 41 | 1018.8 |
| 20260502163531 | 7 | 313 | 4.8 | 11.3 | 0.00 | 0.00 | 0.00 | 41 | 1018.8 |
| 20260502163031 | 7 | 325 | 6.4 | 11.3 | 0.00 | 0.00 | 0.00 | 42 | 1018.8 |
| 20260502162531 | 7 | 316 | 8.0 | 12.9 | 0.00 | 0.00 | 0.00 | 42 | 1018.8 |
| 20260502162031 | 7 | 304 | 3.2 | 11.3 | 0.00 | 0.00 | 0.00 | 41 | 1018.8 |
| 20260502161612 | 7 | 260 | 4.8 | 9.7 | 0.00 | 0.00 | 0.00 | 41 | 1018.8 |
| 20260502161031 | 7 | 291 | 6.4 | 11.3 | 0.00 | 0.00 | 0.00 | 42 | 1018.8 |
| 20260502160533 | 7 | 329 | 6.4 | 11.3 | 0.00 | 0.00 | 0.00 | 43 | 1018.4 |
| 20260502152031 | 7 | 359 | 6.4 | 14.5 | 0.00 | 0.18 | 0.00 | 46 | |
| 20260502151531 | 7 | 11 | 6.4 | 16.1 | 0.00 | 0.18 | 0.00 | 46 | |
| 20260502151031 | 7 | 18 | 6.4 | 17.7 | 0.00 | 0.18 | 0.00 | 45 | |
| 20260502150531 | 6 | 337 | 6.4 | 12.9 | 0.00 | 0.18 | 0.00 | 48 | |
| 20260501225031 | 8 | 321 | 4.8 | 9.7 | 5.56 | 6.38 | 6.35 | 55 | 1015.5 |
| 20260501224530 | 8 | 299 | 8.0 | 9.7 | 5.56 | 6.38 | 6.35 | 54 | 1015.1 |
| 20260501224051 | 8 | 350 | 6.4 | 6.4 | 5.56 | 6.38 | 6.35 | 55 | 1015.1 |
| 20260501222531 | 10 | 341 | 6.4 | 11.3 | 3.71 | 4.52 | 4.50 | 50 | 1015.1 |
| 20260501211530 | 10 | 322 | 8.0 | 14.5 | 0.00 | 0.81 | 0.79 | 49 | 1014.5 |